Total_Precipitation_Accumulation
0.00 0.01 0.04 0.09 0.24 0.52 0.69 0.51 0.36 0.16 0.16 0.27 0.43 0.52 0.46 0.37 0.35 0.34 0.08 0.01 0.00 0.01 0.02 0.05 0.09 0.06 0.04 0.04 0.05 0.05 0.06 0.06 0.06 0.04 0.02 0.02 0.02 0.02 0.02 0.02 0.02 0.02 0.03 0.03 0.03 0.02 0.02 0.02 0.02
0.00 0.01 0.05 0.12 0.28 0.61 0.68 0.45 0.22 0.16 0.19 0.30 0.37 0.36 0.31 0.23 0.19 0.08 0.04 0.01 0.01 0.01 0.02 0.02 0.06 0.07 0.05 0.04 0.05 0.06 0.06 0.06 0.06 0.04 0.02 0.02 0.02 0.02 0.02 0.02 0.03 0.03 0.04 0.04 0.03 0.03 0.02 0.02 0.01
0.00 0.01 0.03 0.10 0.26 0.40 0.39 0.25 0.19 0.20 0.27 0.38 0.36 0.30 0.22 0.18 0.12 0.05 0.02 0.01 0.02 0.02 0.02 0.02 0.04 0.06 0.05 0.05 0.05 0.05 0.05 0.05 0.04 0.03 0.02 0.02 0.02 0.02 0.03 0.03 0.04 0.04 0.05 0.05 0.05 0.04 0.02 0.01 0.01
0.00 0.01 0.03 0.07 0.17 0.27 0.22 0.18 0.17 0.16 0.31 0.47 0.49 0.31 0.17 0.14 0.10 0.04 0.02 0.01 0.02 0.02 0.02 0.04 0.06 0.07 0.07 0.06 0.05 0.06 0.05 0.05 0.04 0.03 0.02 0.03 0.03 0.03 0.04 0.05 0.05 0.05 0.06 0.06 0.06 0.05 0.03 0.02 0.02
0.00 0.01 0.03 0.07 0.14 0.19 0.19 0.16 0.16 0.19 0.25 0.45 0.52 0.39 0.22 0.18 0.12 0.06 0.03 0.02 0.02 0.03 0.03 0.05 0.09 0.08 0.07 0.06 0.06 0.05 0.05 0.04 0.03 0.03 0.03 0.03 0.04 0.05 0.06 0.06 0.06 0.06 0.07 0.08 0.07 0.05 0.04 0.03 0.02
0.00 0.01 0.02 0.04 0.07 0.08 0.10 0.12 0.18 0.22 0.33 0.44 0.42 0.35 0.29 0.23 0.18 0.09 0.07 0.04 0.03 0.03 0.04 0.06 0.08 0.08 0.08 0.07 0.06 0.05 0.05 0.04 0.04 0.04 0.04 0.05 0.06 0.07 0.09 0.09 0.08 0.09 0.09 0.10 0.10 0.08 0.06 0.05 0.04
0.00 0.00 0.01 0.02 0.03 0.06 0.07 0.10 0.19 0.27 0.46 0.53 0.57 0.46 0.40 0.36 0.24 0.16 0.13 0.08 0.07 0.05 0.04 0.06 0.06 0.08 0.09 0.09 0.08 0.07 0.06 0.06 0.06 0.06 0.07 0.07 0.08 0.09 0.11 0.12 0.12 0.13 0.15 0.15 0.15 0.14 0.12 0.09 0.08
0.00 0.00 0.00 0.00 0.01 0.04 0.06 0.09 0.16 0.26 0.43 0.46 0.61 0.64 0.64 0.50 0.32 0.23 0.20 0.14 0.14 0.09 0.08 0.07 0.08 0.11 0.11 0.11 0.10 0.10 0.09 0.09 0.09 0.09 0.11 0.13 0.13 0.15 0.19 0.18 0.19 0.22 0.24 0.26 0.26 0.26 0.26 0.24 0.20
0.00 0.00 0.00 0.00 0.01 0.02 0.04 0.10 0.16 0.29 0.36 0.34 0.45 0.60 0.67 0.50 0.37 0.35 0.36 0.28 0.21 0.13 0.11 0.11 0.12 0.12 0.13 0.13 0.14 0.16 0.17 0.17 0.16 0.18 0.19 0.21 0.25 0.31 0.38 0.37 0.43 0.44 0.46 0.48 0.49 0.49 0.51 0.48 0.39
0.00 0.00 0.00 0.00 0.00 0.02 0.05 0.11 0.17 0.26 0.51 0.71 0.86 0.79 0.67 0.61 0.52 0.47 0.45 0.37 0.30 0.15 0.11 0.14 0.17 0.15 0.17 0.18 0.26 0.36 0.39 0.44 0.39 0.44 0.46 0.48 0.52 0.46 0.41 0.52 0.73 0.82 0.92 0.92 0.91 0.99 0.93 0.73 0.52
0.00 0.00 0.00 0.00 0.00 0.01 0.04 0.09 0.11 0.24 0.67 1.17 1.33 1.03 0.70 0.71 0.69 0.64 0.54 0.51 0.36 0.23 0.17 0.17 0.23 0.23 0.25 0.28 0.32 0.45 0.60 0.79 0.76 0.75 0.85 0.85 0.82 0.69 0.60 0.72 0.93 1.03 1.18 1.17 1.35 1.55 1.25 1.13 1.05
0.00 0.00 0.00 0.00 0.00 0.01 0.03 0.09 0.13 0.27 0.67 1.06 1.10 0.85 0.60 0.65 0.65 0.77 0.73 0.62 0.52 0.42 0.36 0.36 0.41 0.45 0.46 0.52 0.55 0.60 0.67 0.78 0.85 0.89 0.94 1.10 1.10 1.04 0.97 0.95 0.99 1.09 1.20 1.43 1.56 1.68 1.73 1.73 1.49
0.00 0.00 0.00 0.00 0.00 0.02 0.04 0.09 0.19 0.33 0.46 0.51 0.61 0.61 0.60 0.67 0.75 0.94 0.88 0.80 0.66 0.66 0.72 0.79 0.77 0.76 0.80 0.86 0.83 0.73 0.76 0.79 0.82 0.96 1.06 1.25 1.33 1.35 1.37 1.29 1.27 1.16 1.31 1.58 1.79 1.76 1.92 2.04 1.86
0.00 0.00 0.00 0.00 0.01 0.02 0.04 0.09 0.21 0.33 0.36 0.41 0.51 0.56 0.61 0.76 1.00 1.10 0.98 0.90 0.83 0.96 1.17 1.20 1.15 1.16 1.18 1.18 1.12 1.05 0.98 0.95 0.94 1.08 1.23 1.48 1.57 1.58 1.61 1.52 1.42 1.19 1.28 1.51 1.76 1.81 1.96 1.93 1.93
0.00 0.00 0.02 0.02 0.02 0.05 0.05 0.12 0.31 0.49 0.39 0.40 0.57 0.61 0.64 0.85 0.96 1.11 1.14 1.12 1.16 1.29 1.42 1.45 1.50 1.59 1.69 1.65 1.46 1.30 1.15 1.09 1.16 1.36 1.57 1.75 1.85 1.87 1.88 1.70 1.46 1.34 1.52 1.63 1.64 1.69 2.05 1.89 1.74
0.00 0.01 0.05 0.05 0.03 0.06 0.07 0.34 0.52 0.53 0.45 0.47 0.69 0.66 0.61 0.75 0.88 1.03 1.12 1.31 1.51 1.62 1.73 1.81 1.89 2.10 2.18 2.03 1.80 1.67 1.59 1.59 1.54 1.60 1.75 1.77 1.82 1.89 2.01 1.70 1.40 1.56 1.75 1.71 1.64 1.68 1.89 1.89 1.95
0.01 0.02 0.05 0.08 0.08 0.07 0.12 0.49 0.63 0.43 0.47 0.57 0.64 0.69 0.71 0.77 0.89 1.01 1.22 1.55 1.87 2.14 2.33 2.44 2.65 2.74 2.51 2.26 2.04 1.94 1.84 1.73 1.55 1.36 1.31 1.26 1.25 1.31 1.35 1.05 0.98 1.26 1.34 1.22 1.19 1.44 1.59 1.60 1.73
0.02 0.05 0.10 0.20 0.16 0.09 0.14 0.41 0.54 0.46 0.47 0.62 0.70 0.69 0.77 0.84 0.97 1.07 1.37 1.68 2.02 2.43 2.91 3.20 3.17 2.77 2.39 2.06 1.80 1.69 1.53 1.43 1.27 1.08 0.96 0.85 0.83 0.85 0.89 0.72 0.73 0.99 1.05 0.97 1.09 1.19 1.24 1.18 1.25
0.02 0.05 0.11 0.18 0.11 0.11 0.21 0.40 0.45 0.47 0.56 0.71 0.84 0.79 0.79 0.79 0.94 1.14 1.44 1.80 2.21 2.81 3.46 3.58 3.11 2.61 2.16 1.83 1.53 1.25 1.04 0.96 0.91 0.77 0.71 0.70 0.72 0.74 0.83 0.72 0.80 0.95 0.95 0.92 0.98 1.04 0.97 0.81 0.98
0.05 0.07 0.12 0.15 0.10 0.12 0.18 0.37 0.55 0.62 0.74 0.76 0.81 0.82 0.76 0.88 1.12 1.39 1.76 1.99 2.28 2.64 3.01 2.96 2.48 1.98 1.47 1.15 1.02 0.86 0.72 0.63 0.53 0.49 0.52 0.49 0.55 0.63 0.72 0.67 0.58 0.63 0.65 0.61 0.65 0.82 0.84 0.74 0.87
0.07 0.08 0.12 0.14 0.07 0.11 0.18 0.42 0.68 0.76 0.65 0.55 0.48 0.56 0.57 0.67 1.03 1.54 2.03 2.23 2.34 2.34 2.15 1.95 1.52 1.00 0.75 0.57 0.52 0.45 0.43 0.42 0.34 0.31 0.33 0.32 0.35 0.39 0.47 0.50 0.50 0.55 0.62 0.61 0.61 0.65 0.69 0.63 0.64
0.07 0.05 0.05 0.05 0.06 0.19 0.26 0.66 0.86 0.74 0.60 0.50 0.39 0.36 0.37 0.50 0.90 1.55 1.83 1.81 1.78 1.68 1.30 1.00 0.81 0.54 0.39 0.35 0.36 0.37 0.33 0.33 0.28 0.24 0.25 0.24 0.24 0.27 0.30 0.34 0.34 0.41 0.52 0.59 0.54 0.55 0.58 0.57 0.50
0.05 0.04 0.04 0.06 0.09 0.20 0.34 0.61 0.83 0.68 0.63 0.48 0.35 0.30 0.34 0.43 0.63 0.91 0.99 1.03 1.02 0.92 0.75 0.61 0.58 0.47 0.42 0.40 0.41 0.43 0.31 0.25 0.22 0.21 0.20 0.21 0.24 0.26 0.27 0.28 0.28 0.31 0.35 0.39 0.42 0.49 0.52 0.54 0.50
0.03 0.05 0.10 0.20 0.28 0.50 0.47 0.55 0.81 0.73 0.56 0.34 0.24 0.25 0.23 0.28 0.41 0.54 0.53 0.51 0.47 0.39 0.40 0.43 0.55 0.58 0.48 0.38 0.34 0.34 0.29 0.24 0.21 0.18 0.19 0.20 0.22 0.26 0.29 0.30 0.30 0.32 0.33 0.34 0.36 0.40 0.44 0.50 0.54
0.05 0.08 0.24 0.51 0.80 0.80 0.45 0.48 0.75 0.51 0.32 0.22 0.16 0.15 0.21 0.31 0.37 0.43 0.48 0.45 0.35 0.28 0.29 0.31 0.33 0.34 0.33 0.30 0.29 0.28 0.28 0.25 0.23 0.21 0.17 0.17 0.19 0.23 0.27 0.32 0.34 0.37 0.37 0.37 0.38 0.38 0.41 0.47 0.55
0.06 0.08 0.16 0.28 0.32 0.37 0.36 0.71 0.81 0.36 0.25 0.15 0.10 0.10 0.15 0.23 0.27 0.28 0.29 0.28 0.22 0.17 0.14 0.13 0.14 0.15 0.15 0.16 0.18 0.19 0.23 0.21 0.20 0.23 0.19 0.17 0.20 0.24 0.28 0.29 0.30 0.34 0.36 0.38 0.40 0.37 0.37 0.47 0.56
0.06 0.05 0.06 0.06 0.11 0.23 0.41 0.60 0.49 0.27 0.18 0.10 0.06 0.06 0.08 0.10 0.11 0.12 0.10 0.09 0.09 0.08 0.08 0.09 0.08 0.07 0.07 0.08 0.11 0.13 0.17 0.19 0.18 0.20 0.19 0.19 0.25 0.26 0.28 0.29 0.30 0.32 0.35 0.38 0.40 0.41 0.45 0.52 0.56
0.06 0.05 0.04 0.04 0.10 0.18 0.32 0.55 0.55 0.29 0.18 0.08 0.04 0.04 0.04 0.03 0.04 0.04 0.05 0.04 0.03 0.03 0.03 0.04 0.04 0.04 0.05 0.05 0.06 0.07 0.10 0.14 0.16 0.15 0.18 0.21 0.21 0.22 0.27 0.32 0.34 0.34 0.35 0.43 0.50 0.49 0.50 0.59 0.68
0.04 0.04 0.04 0.04 0.05 0.09 0.20 0.33 0.24 0.13 0.06 0.03 0.02 0.01 0.01 0.01 0.01 0.01 0.02 0.02 0.02 0.02 0.01 0.02 0.02 0.02 0.03 0.03 0.03 0.04 0.06 0.08 0.11 0.14 0.16 0.19 0.19 0.21 0.25 0.30 0.34 0.35 0.42 0.60 0.78 0.76 0.68 0.74 0.83
0.03 0.03 0.04 0.04 0.04 0.06 0.10 0.14 0.10 0.07 0.03 0.02 0.01 0.01 0.01 0.01 0.00 0.00 0.00 0.01 0.01 0.01 0.01 0.02 0.02 0.02 0.03 0.03 0.03 0.03 0.05 0.06 0.08 0.10 0.13 0.17 0.19 0.19 0.18 0.20 0.25 0.28 0.34 0.50 0.81 0.99 1.01 0.99 0.91